• In Österreich
  • Länderverzeichnis
  • Für 7 Tage
  • Wassertemperatur
  • Satellitenkarten
  • Wetterkarte
  • News
  • Widgets
  • user-avatar
    Anmelden

    Stündliche Wetter Neuquén

    Heute, 17 Dezember, Sonntag

    Zeit Temperatur Niederschläge Wind Luftdruck Luftfeuchtigkeit
    00:00 +10°C° 0 mm 13 m/S 734 mmHg 30%
    01:00 +11°C° 0 mm 11 m/S 735 mmHg 31%
    02:00 +9°C° 0 mm 10 m/S 735 mmHg 32%
    03:00 +10°C° 0 mm 9 m/S 736 mmHg 33%
    04:00 +10°C° 0 mm 8 m/S 737 mmHg 34%
    05:00 +11°C° 0 mm 7 m/S 737 mmHg 31%
    06:00 +12°C° 0 mm 7 m/S 738 mmHg 27%
    07:00 +14°C° 0 mm 6 m/S 739 mmHg 23%
    08:00 +15°C° 0 mm 5 m/S 739 mmHg 21%
    09:00 +17°C° 0 mm 3 m/S 739 mmHg 18%
    10:00 +19°C° 0 mm 1 m/S 739 mmHg 15%
    11:00 +20°C° 0 mm 1 m/S 738 mmHg 13%
    12:00 +21°C° 0 mm 1 m/S 738 mmHg 12%
    13:00 +23°C° 0 mm 1 m/S 737 mmHg 11%
    14:00 +23°C° 0 mm 1 m/S 737 mmHg 10%
    15:00 +24°C° 0 mm 2 m/S 736 mmHg 10%
    16:00 +25°C° 0 mm 3 m/S 735 mmHg 9%
    17:00 +25°C° 0 mm 3 m/S 735 mmHg 9%
    18:00 +25°C° 0 mm 3 m/S 735 mmHg 9%
    19:00 +23°C° 0 mm 4 m/S 735 mmHg 9%
    20:00 +23°C° 0 mm 4 m/S 735 mmHg 10%
    21:00 +22°C° 0 mm 5 m/S 735 mmHg 10%
    22:00 +22°C° 0 mm 5 m/S 735 mmHg 10%
    23:00 +21°C° 0 mm 5 m/S 735 mmHg 11%

    Morgen, 18 Dezember, Montag

    Zeit Temperatur Niederschläge Wind Luftdruck Luftfeuchtigkeit
    00:00 +21°C° 0 mm 5 m/S 734 mmHg 12%
    01:00 +20°C° 0 mm 5 m/S 733 mmHg 13%
    02:00 +20°C° 0 mm 5 m/S 733 mmHg 14%
    03:00 +19°C° 0 mm 5 m/S 733 mmHg 15%
    04:00 +19°C° 0 mm 4 m/S 732 mmHg 17%
    05:00 +20°C° 0 mm 5 m/S 732 mmHg 16%
    06:00 +22°C° 0 mm 6 m/S 733 mmHg 16%
    07:00 +24°C° 0 mm 7 m/S 733 mmHg 15%
    08:00 +26°C° 0 mm 7 m/S 733 mmHg 14%
    09:00 +28°C° 0 mm 7 m/S 732 mmHg 14%
    10:00 +30°C° 0 mm 7 m/S 732 mmHg 13%
    11:00 +32°C° 0 mm 6 m/S 732 mmHg 12%
    12:00 +34°C° 0 mm 6 m/S 731 mmHg 11%
    13:00 +35°C° 0 mm 5 m/S 731 mmHg 11%
    14:00 +35°C° 0 mm 5 m/S 730 mmHg 10%
    15:00 +36°C° 0 mm 4 m/S 730 mmHg 9%
    16:00 +36°C° 0 mm 3 m/S 730 mmHg 8%
    17:00 +35°C° 0 mm 3 m/S 730 mmHg 9%
    18:00 +34°C° 0 mm 3 m/S 730 mmHg 9%
    19:00 +33°C° 0 mm 3 m/S 730 mmHg 10%
    20:00 +31°C° 0 mm 3 m/S 731 mmHg 11%
    21:00 +30°C° 0 mm 3 m/S 731 mmHg 12%
    22:00 +30°C° 0 mm 3 m/S 731 mmHg 13%
    23:00 +29°C° 0 mm 4 m/S 731 mmHg 17%

    übermorgen, 19 Dezember, Dienstag

    Zeit Temperatur Niederschläge Wind Luftdruck Luftfeuchtigkeit
    00:00 +28°C° 0 mm 4 m/S 731 mmHg 21%
    01:00 +27°C° 0 mm 4 m/S 731 mmHg 26%
    02:00 +26°C° 0 mm 4 m/S 731 mmHg 28%
    03:00 +25°C° 0 mm 3 m/S 731 mmHg 30%
    04:00 +24°C° 0 mm 3 m/S 731 mmHg 32%
    05:00 +26°C° 0 mm 3 m/S 732 mmHg 29%
    06:00 +27°C° 0 mm 3 m/S 732 mmHg 27%
    07:00 +29°C° 0 mm 3 m/S 732 mmHg 24%
    08:00 +30°C° 0 mm 3 m/S 732 mmHg 22%
    09:00 +31°C° 0 mm 3 m/S 732 mmHg 20%
    10:00 +34°C° 0 mm 3 m/S 732 mmHg 18%
    11:00 +35°C° 0 mm 3 m/S 731 mmHg 16%
    12:00 +36°C° 0 mm 3 m/S 731 mmHg 13%
    13:00 +37°C° 0 mm 4 m/S 730 mmHg 11%
    14:00 +38°C° 0 mm 4 m/S 729 mmHg 9%
    15:00 +38°C° 0 mm 4 m/S 729 mmHg 8%
    16:00 +40°C° 0 mm 5 m/S 728 mmHg 7%
    17:00 +38°C° 0 mm 4 m/S 728 mmHg 7%
    18:00 +37°C° 0 mm 2 m/S 728 mmHg 8%
    19:00 +34°C° 0 mm 1 m/S 728 mmHg 9%
    20:00 +34°C° 0 mm 4 m/S 729 mmHg 11%
    21:00 +33°C° 0 mm 7 m/S 729 mmHg 13%
    22:00 +32°C° 0 mm 9 m/S 729 mmHg 16%
    23:00 +31°C° 0 mm 9 m/S 729 mmHg 18%

    20 Dezember, Mittwoch

    Zeit Temperatur Niederschläge Wind Luftdruck Luftfeuchtigkeit
    00:00 +28°C° 0 mm 8 m/S 729 mmHg 21%
    01:00 +27°C° 0 mm 8 m/S 729 mmHg 23%
    02:00 +26°C° 0 mm 7 m/S 729 mmHg 26%
    03:00 +24°C° 0 mm 7 m/S 729 mmHg 29%
    04:00 +23°C° 0 mm 6 m/S 729 mmHg 32%
    05:00 +26°C° 0 mm 7 m/S 729 mmHg 30%
    06:00 +27°C° 0 mm 7 m/S 730 mmHg 28%
    07:00 +28°C° 0 mm 8 m/S 730 mmHg 27%
    08:00 +29°C° 0 mm 8 m/S 730 mmHg 23%
    09:00 +32°C° 0 mm 7 m/S 729 mmHg 20%
    10:00 +33°C° 0 mm 7 m/S 729 mmHg 16%
    11:00 +35°C° 0 mm 8 m/S 729 mmHg 14%
    12:00 +37°C° 0 mm 8 m/S 728 mmHg 12%
    13:00 +39°C° 0 mm 8 m/S 728 mmHg 11%
    14:00 +38°C° 0 mm 9 m/S 727 mmHg 12%
    15:00 +38°C° 0 mm 10 m/S 727 mmHg 14%
    16:00 +38°C° 0 mm 11 m/S 727 mmHg 16%
    17:00 +36°C° 0 mm 11 m/S 727 mmHg 18%
    18:00 +33°C° 0 mm 12 m/S 727 mmHg 21%
    19:00 +31°C° 0 mm 12 m/S 727 mmHg 23%
    20:00 +28°C° 0 mm 11 m/S 728 mmHg 24%
    21:00 +27°C° 0 mm 11 m/S 729 mmHg 26%
    22:00 +24°C° 0 mm 10 m/S 729 mmHg 27%
    23:00 +23°C° 0 mm 9 m/S 729 mmHg 28%

    21 Dezember, Donnerstag

    Zeit Temperatur Niederschläge Wind Luftdruck Luftfeuchtigkeit
    00:00 +22°C° 0 mm 8 m/S 729 mmHg 29%
    01:00 +21°C° 0 mm 6 m/S 729 mmHg 29%
    02:00 +20°C° 0 mm 7 m/S 729 mmHg 30%
    03:00 +18°C° 0 mm 7 m/S 730 mmHg 31%
    04:00 +18°C° 0 mm 7 m/S 730 mmHg 32%
    05:00 +20°C° 0 mm 7 m/S 731 mmHg 29%
    06:00 +20°C° 0 mm 7 m/S 731 mmHg 26%
    07:00 +21°C° 0 mm 7 m/S 732 mmHg 22%
    08:00 +23°C° 0 mm 6 m/S 731 mmHg 20%
    09:00 +25°C° 0 mm 5 m/S 731 mmHg 18%
    10:00 +27°C° 0 mm 5 m/S 731 mmHg 15%
    11:00 +28°C° 0 mm 5 m/S 730 mmHg 15%
    12:00 +29°C° 0 mm 5 m/S 729 mmHg 16%
    13:00 +32°C° 0 mm 5 m/S 728 mmHg 16%
    14:00 +33°C° 0 mm 5 m/S 728 mmHg 14%
    15:00 +34°C° 0 mm 6 m/S 727 mmHg 13%
    16:00 +35°C° 0 mm 6 m/S 727 mmHg 12%
    17:00 +33°C° 0 mm 7 m/S 727 mmHg 12%
    18:00 +32°C° 0 mm 9 m/S 727 mmHg 13%
    19:00 +29°C° 0 mm 10 m/S 728 mmHg 13%
    20:00 +27°C° 0 mm 10 m/S 728 mmHg 16%
    21:00 +26°C° 0 mm 10 m/S 729 mmHg 19%
    22:00 +23°C° 0 mm 10 m/S 729 mmHg 22%
    23:00 +22°C° 0 mm 10 m/S 729 mmHg 25%

    22 Dezember, Freitag

    Zeit Temperatur Niederschläge Wind Luftdruck Luftfeuchtigkeit
    00:00 +19°C° 0 mm 10 m/S 729 mmHg 27%
    01:00 +18°C° 0 mm 9 m/S 729 mmHg 30%
    02:00 +17°C° 0 mm 9 m/S 729 mmHg 32%
    03:00 +16°C° 0 mm 9 m/S 730 mmHg 34%
    04:00 +16°C° 0 mm 9 m/S 730 mmHg 36%
    05:00 +16°C° 0 mm 10 m/S 730 mmHg 34%
    06:00 +17°C° 0 mm 10 m/S 731 mmHg 31%
    07:00 +18°C° 0 mm 10 m/S 731 mmHg 29%
    08:00 +19°C° 0 mm 11 m/S 731 mmHg 26%
    09:00 +22°C° 0 mm 11 m/S 731 mmHg 23%
    10:00 +23°C° 0 mm 11 m/S 731 mmHg 19%
    11:00 +26°C° 0 mm 11 m/S 730 mmHg 17%
    12:00 +27°C° 0 mm 11 m/S 730 mmHg 14%
    13:00 +28°C° 0 mm 11 m/S 730 mmHg 12%
    14:00 +28°C° 0 mm 11 m/S 730 mmHg 12%
    15:00 +28°C° 0 mm 12 m/S 730 mmHg 12%
    16:00 +28°C° 0 mm 12 m/S 730 mmHg 12%
    17:00 +27°C° 0 mm 12 m/S 730 mmHg 14%
    18:00 +24°C° 0 mm 12 m/S 731 mmHg 16%
    19:00 +23°C° 0 mm 11 m/S 731 mmHg 19%
    20:00 +22°C° 0 mm 11 m/S 732 mmHg 20%
    21:00 +19°C° 0 mm 10 m/S 733 mmHg 22%
    22:00 +18°C° 0 mm 9 m/S 733 mmHg 23%
    23:00 +18°C° 0 mm 9 m/S 734 mmHg 25%
    Mehr zeigen